Cloud_Cover
100 67 4 5 9 32 5 5 97 63 82 6 6 3 2 3 4 2 5 5 60 35 13 5 5 0 6 100 100 96 5 45 50 4 8 8 3 0 0 2 0 4 11 7 0 1 3 0 0
5 6 5 5 80 91 7 3 5 16 5 5 71 100 68 18 3 1 3 5 5 7 30 5 4 0 77 100 100 90 10 4 4 0 0 0 0 15 1 0 9 0 0 11 0 1 0 0 0
5 5 5 5 38 12 27 5 5 1 0 3 5 5 4 12 11 5 1 5 5 7 5 5 0 0 96 100 88 2 18 0 0 0 0 0 0 0 0 0 1 0 16 5 0 0 0 0 0
5 5 5 48 17 5 0 0 0 0 0 0 0 0 2 0 0 0 0 5 5 5 5 0 0 0 100 100 7 7 0 0 0 0 0 0 0 0 0 0 0 7 16 4 0 0 0 0 0
4 2 8 88 6 1 0 0 0 0 0 0 0 0 0 0 0 9 12 17 0 0 0 0 0 4 100 80 1 0 0 0 0 0 0 0 0 0 0 0 0 0 0 4 5 5 0 0 7
5 5 48 34 32 0 0 0 0 0 0 0 0 0 0 10 4 18 37 6 0 0 0 0 0 0 100 44 9 1 0 0 0 0 0 0 0 0 0 0 0 0 3 4 2 16 5 5 8
5 5 29 5 5 1 0 0 0 0 0 0 0 0 0 5 10 5 5 0 0 0 0 0 0 0 14 9 10 3 0 0 0 0 0 0 0 0 0 0 0 0 0 2 0 5 5 5 5
5 5 5 5 2 0 0 0 0 0 0 0 0 2 5 5 5 0 0 0 0 0 0 0 0 0 0 0 3 1 0 0 0 0 0 0 0 4 4 0 0 0 0 2 5 5 5 5 5
12 5 40 54 5 5 2 1 0 0 0 0 0 0 1 6 4 0 0 0 0 0 0 0 0 0 0 0 0 0 0 0 0 0 0 5 5 5 5 5 5 5 3 5 5 10 11 5 5
95 82 79 100 5 5 5 5 5 0 0 0 0 0 0 0 0 0 0 0 0 0 0 0 0 0 0 0 0 0 0 0 0 0 4 5 6 6 5 5 5 5 5 5 5 5 100 100 9
100 100 100 78 6 5 5 5 5 1 0 0 0 0 0 0 0 0 0 0 0 0 0 0 0 0 0 0 0 0 0 0 0 0 5 5 5 5 5 5 5 5 3 5 5 5 6 42 25
99 100 100 99 92 81 99 86 14 9 5 5 4 5 0 0 0 0 0 0 0 0 0 0 0 0 0 0 0 0 0 0 0 0 0 5 6 41 70 70 68 62 30 5 64 13 5 5 5
0 14 77 100 100 100 100 100 94 62 8 25 13 5 5 0 0 0 0 0 0 0 0 0 0 0 0 0 0 0 0 0 0 0 3 5 5 23 95 100 100 63 81 21 11 22 29 16 5
0 0 0 0 18 100 20 68 1 33 97 89 50 31 9 0 0 0 0 0 0 0 0 0 0 0 0 0 2 1 0 0 0 0 2 5 0 4 6 79 99 74 84 100 95 11 18 34 15
0 0 0 0 0 0 0 0 0 0 65 100 100 92 5 0 0 0 0 0 0 0 0 0 0 5 1 0 4 3 0 5 2 5 5 5 0 5 5 8 84 26 23 100 100 44 8 5 5
70 0 0 4 4 0 0 5 0 0 0 34 66 26 27 0 0 0 0 0 1 1 0 0 0 0 0 1 39 5 0 2 2 1 4 2 0 0 0 0 4 15 13 100 100 5 8 8 13
100 49 3 1 5 5 23 5 2 5 20 4 1 0 0 5 5 4 0 0 0 0 0 0 0 0 0 3 0 0 0 5 3 1 0 0 0 0 0 1 2 0 7 100 100 42 24 14 8
73 82 26 13 14 74 71 68 34 5 3 0 4 4 4 1 2 2 0 0 0 0 0 4 0 0 0 1 0 0 0 0 4 0 0 0 2 5 5 5 5 5 93 100 100 43 53 50 32
100 81 100 77 100 100 100 100 100 32 5 74 8 64 79 4 0 1 0 1 0 1 88 5 1 5 5 0 0 5 5 5 5 61 63 78 5 5 25 4 3 5 52 94 100 96 100 44 48
41 59 88 98 100 100 100 100 100 98 5 20 100 94 7 5 5 1 1 2 5 41 90 93 12 5 0 0 0 2 1 5 5 17 87 5 5 5 84 61 6 5 5 5 67 38 93 100 99
5 5 45 38 99 100 100 100 100 100 100 90 96 27 5 5 5 5 5 3 5 10 5 4 5 5 0 2 5 5 5 5 5 5 5 5 5 7 90 87 64 9 16 91 71 66 100 100 100
0 1 4 5 96 100 100 100 100 100 100 100 98 100 34 5 5 75 39 5 4 5 25 14 5 5 3 0 0 5 5 50 5 5 5 5 5 5 15 99 78 100 100 100 100 100 100 96 85
0 0 0 5 39 88 100 100 80 91 17 99 91 17 26 70 100 100 100 100 100 99 100 97 5 5 5 5 7 5 5 5 5 5 2 0 2 1 5 86 100 61 100 100 100 100 100 100 100
0 34 14 0 0 5 19 100 6 56 6 36 43 5 56 85 78 97 95 90 91 41 5 5 5 5 5 5 5 5 5 21 5 4 3 1 0 2 8 8 96 93 100 100 100 100 96 100 100
3 2 29 5 0 3 6 56 5 73 5 5 6 81 100 100 100 100 98 100 100 100 79 14 21 5 16 5 20 5 5 5 44 87 3 1 19 82 93 64 47 96 100 100 100 100 100 100 100
6 3 1 1 0 0 0 0 5 26 35 5 24 6 59 73 97 100 100 100 100 100 100 100 74 64 80 9 5 5 53 100 76 33 25 95 73 37 38 80 42 38 90 100 100 43 100 100 100
13 4 2 0 0 0 5 0 0 1 5 5 5 5 26 74 100 98 100 100 100 100 100 97 98 100 83 64 82 56 100 100 83 63 23 98 66 42 96 76 66 64 100 100 100 100 100 100 100
72 5 0 0 0 8 8 98 69 5 4 5 4 1 85 100 99 18 18 94 100 100 100 98 96 100 100 100 100 100 100 98 65 43 96 98 82 79 80 76 88 100 100 100 100 100 100 100 100
100 100 4 0 0 4 30 50 36 0 3 0 55 100 100 100 100 43 7 5 6 21 84 97 100 100 100 98 91 99 98 86 77 100 98 82 98 99 80 92 100 100 100 100 100 100 100 100 100
100 68 16 7 5 5 5 88 10 14 0 7 100 100 100 100 85 76 78 28 23 5 20 85 100 100 88 100 100 97 100 100 100 100 100 100 88 84 60 70 79 98 44 100 100 100 100 100 100